sat.trackr.live / text

‹ back to catalog

STARLINK-4731

NORAD 53703 · 2022-107D

PAYLOAD ACTIVE UNKNOWN

§ Identity

Operator
Country
US
Launch date
2022-09-05
Launch site
AFETR
Launch vehicle
Mass (kg)
RCS (m²)

Purposes: comms

External: N2YO · Heavens-Above · Gunter

§ Orbital elements

Epoch: 2026-09-20T21:29:29.014944Z

Period
93.85 min
Inclination
53.1618°
Eccentricity
0.0001428
Mean motion
15.34384845 rev/d
Perigee alt
461.8 km
Apogee alt
463.7 km
Semi-major
6,840.9 km
B*
1.9388e-5
RAAN
83.6216°
Arg perigee
91.5975°
Mean anomaly
268.5191°
Rev number
22,437

§ Raw data

STARLINK-47311 53703U 22107D   26263.89547471  .00000278  00000+0  19388-4 0  99932 53703  53.1618  83.6216 0001428  91.5975 268.5191 15.34384845224376

JSON: /api/v1/satellites/53703 · /tle

For live sub-satellite position, see the globe view (requires WebGL).

§ Visibility from observer

Set your observer location to see the next 7 days of passes ≥ 10°. The values pass through the URL so the page stays shareable.

No JS? Fill the form by hand. The geolocation button needs JavaScript.